Regional Weather Roundup
Issued by NWS

Home | Current Version | Previous Version | Graphics & Text | Print | Product List | Glossary On
Versions: 1 2 3 4 5 6 7 8 9 10 11 12 13 14 15 16 17 18 19 20 21 22 23 24 25 26 27 28 29 30 31 32 33 34 35 36 37 38 39 40 41 42 43 44 45 46 47 48 49 50
000
ASUS43 KDTX 270510
RWRMI
MICHIGAN HOURLY REGIONAL WEATHER ROUNDUP
NATIONAL WEATHER SERVICE DETROIT/PONTIAC MI
100 AM EDT FRI MAR 27 2015

NOTE: "FAIR" INDICATES FEW OR NO CLOUDS BELOW 12,000 FEET WITH NO
SIGNIFICANT WEATHER AND/OR OBSTRUCTION TO VISIBILITY.

MIZ047>049-052>055-059>063-066>070-074>076-081>083-270600-
SOUTHEAST LOWER MICHIGAN

CITY           SKY/WX    TMP DP  RH WIND       PRES   REMARKS
ADRIAN         CLOUDY    33  24  69 N9        29.96S
ALMA           MOCLDY    23  14  67 NW15G21   30.02R
ANN ARBOR      CLOUDY    33  23  66 NW9       29.95R
BAD AXE        LGT SNOW  25  21  83 NW14G20   29.95R
DETROIT CITY   CLOUDY    36  22  56 NW10      29.93S
DETROIT        FLURRIES  35  24  64 NW10      29.94S
FLINT          CLOUDY    30  18  60 NW10      29.97R
GROSSE ILE     CLOUDY    36  25  64 W12       29.93R
HILLSDALE      CLOUDY    32  24  72 NW10      29.94S
HOWELL         CLOUDY    30  22  74 N6        29.95S

CITY           SKY/WX    TMP DP  RH WIND       PRES   REMARKS
LAMBERTVILLE   CLOUDY    36  27  69 NW5       29.96R
LANSING        CLOUDY    28  18  66 NW14      29.99R
LAPEER         NOT AVBL
MASON          CLOUDY    29  19  65 NW7       29.96S
MONROE         CLOUDY    36  25  64 NW9       29.93S
MT. CLEMENS    FRZ RAIN  32  27  81 N13       29.91R
PONTIAC        CLOUDY    30  22  72 NW16      29.93R
PORT HOPE        N/A     26  20  77 NW15      29.92R
PORT HURON     CLOUDY    30  23  74 NW14G20   29.93R
TRI CITIES     CLOUDY    24  14  65 NW20G26   30.00R
YPSILANTI      CLOUDY    37  23  56 NW16      29.94R
$$
MIZ043>046-050>051-056>058-064>065-071>073-077>080-270600-
SOUTHWEST LOWER MICHIGAN

CITY           SKY/WX    TMP DP  RH WIND       PRES   REMARKS
BATTLE CREEK   CLOUDY    30  22  72 NW8       29.99R
BENTON HARBOR  CLOUDY    29  25  85 VRB7      30.04S
BIG RAPIDS     LGT SNOW  22  16  76 N14       30.02R
COLDWATER      CLOUDY    32  23  70 NW9       29.98R
HOLLAND        CLOUDY    29  17  61 N10       30.06R
GRAND RAPIDS   CLOUDY    27  16  63 NW16      30.02R
KALAMAZOO      CLOUDY    30  20  66 N15       30.00S
MARSHALL       CLOUDY    30  20  68 NW5       29.97S
MUSKEGON       PTCLDY    24  13  62 N14       30.09R
$$
MIZ016>042-270600-
NORTHERN LOWER MICHIGAN

CITY           SKY/WX    TMP DP  RH WIND       PRES   REMARKS
ALPENA         LGT SNOW  21  17  84 NW10      29.95S FOG
BEAVER ISLAND  CLOUDY    19  11  73 N13G21    30.07R
BELLAIRE       FLURRIES  18  13  79 NW3       30.07R
CADILLAC       LGT SNOW  19  13  79 NW13G20   30.00R
CHARLEVOIX     CLOUDY    20  15  81 N15G22    30.08S
FRANKFORT      CLOUDY    24   8  50 N9G17     30.09R
GAYLORD        LGT SNOW  15  12  88 NW8G16    29.96S FOG
GRAYLING       FLURRIES  17  11  76 NW16G23   29.99S
HARBOR SPRINGS FLURRIES  18  12  76 N9        30.03S
HOUGHTON LAKE  FLURRIES  18  10  71 NW12G22   29.98S
MANISTEE       CLOUDY    21  10  63 N12G20    30.09R
OSCODA         CLOUDY    24  16  73 NW13G18   29.94S
PELLSTON       LGT SNOW  18  12  77 NW12      30.03R
TRAVERSE CITY  CLOUDY    21  10  62 NW12      30.06S
$$
MIZ007>008-015-270600-
EASTERN UPPER MICHIGAN

CITY           SKY/WX    TMP DP  RH WIND       PRES   REMARKS
KINROSS        MOCLDY    16  12  86 N12G17    30.02R
MACKINAC ISLAN CLOUDY    17  13  82 N14G23    30.02R FOG
NEWBERRY       CLEAR     12   4  70 N12G21    30.06R WCI  -2
S. S. MARIE    CLOUDY    15   6  67 N9        30.03R
$$
MIZ004>006-011>014-085-270600-
CENTRAL UPPER MICHIGAN

CITY           SKY/WX    TMP DP  RH WIND       PRES   REMARKS
MANISTIQUE     PTCLDY    16   7  67 N10G20    30.09R
ESCANABA       MOCLDY    18   9  68 NW5       30.12S
MENOMINEE      CLEAR     18   3  53 NW7       30.14S
SAWYER-GWINN   CLOUDY    18   6  61 N17       30.08R
$$
MIZ001>003-009>011-084-270600-
WESTERN UPPER MICHIGAN

CITY           SKY/WX    TMP DP  RH WIND       PRES   REMARKS
IRON MOUNTAIN  PTCLDY     9   2  73 NW6       30.11R
HOUGHTON       PTCLDY    15   2  56 N10       30.15R
COPPER HARBOR    N/A     15   5  64 NE8       30.17R
IRONWOOD       CLOUDY    21   3  45 N7        30.14R
$$

ABBREVIATIONS USED IN REMARKS
   TC - TEMPERATURE IN CELSIUS
  WCI - WIND CHILL INDEX
   HX - HEAT INDEX
  VSB - VISIBILITY



USA.gov is the U.S. government's official web portal to all federal, state and local government web resources and services.